This is the latest recevied weather packets stored in our database for station/object DM8MH-13. If no packets are shown the sender has not sent any weather packets the latest 10 day(s).
| Time | Temp. | Humidity | Pressure | Rain* | Wind** | Luminosity | Snow |
|---|---|---|---|---|---|---|---|
| 1777741273 | 27.78° C | 27% | 1015.3 hPa | 0 mm | - | 150 W/m² | - |
| 1777740673 | 27.78° C | 28% | 1015.3 hPa | 0 mm | - | 190 W/m² | - |
| 1777740073 | 27.78° C | 29% | 1015.4 hPa | 0 mm | - | 196 W/m² | - |
| 1777739474 | 27.78° C | 27% | 1015.6 hPa | 0 mm | - | 244 W/m² | - |
| 1777738873 | 28.33° C | 27% | 1015.7 hPa | 0 mm | - | 261 W/m² | - |
| 1777738273 | 28.33° C | 26% | 1015.7 hPa | 0 mm | - | 309 W/m² | - |
| 1777737673 | 28.33° C | 26% | 1015.9 hPa | 0 mm | - | 311 W/m² | - |
| 1777737073 | 28.33° C | 26% | 1016.1 hPa | 0 mm | - | 355 W/m² | - |
| 1777736473 | 28.33° C | 28% | 1016.2 hPa | 0 mm | - | 393 W/m² | - |
| 1777735874 | 28.33° C | 27% | 1016.3 hPa | 0 mm | - | 434 W/m² | - |
| 1777735273 | 28.33° C | 28% | 1016.3 hPa | 0 mm | - | 463 W/m² | - |
| 1777734673 | 28.33° C | 28% | 1016.3 hPa | 0 mm | - | 492 W/m² | - |
| 1777734073 | 28.33° C | 28% | 1016.5 hPa | 0 mm | - | 509 W/m² | - |
| 1777733473 | 28.33° C | 29% | 1016.8 hPa | 0 mm | - | 531 W/m² | - |
| 1777732873 | 27.78° C | 27% | 1016.8 hPa | 0 mm | - | 564 W/m² | - |
| 1777732273 | 28.33° C | 27% | 1016.9 hPa | 0 mm | - | 590 W/m² | - |
| 1777731673 | 27.78° C | 29% | 1017 hPa | 0 mm | - | 603 W/m² | - |
| 1777731073 | 27.78° C | 28% | 1017.2 hPa | 0 mm | - | 559 W/m² | - |
| 1777730473 | 27.78° C | 29% | 1017.4 hPa | 0 mm | - | 611 W/m² | - |
| 1777729873 | 27.78° C | 29% | 1017.5 hPa | 0 mm | - | 660 W/m² | - |
| 1777729273 | 27.78° C | 30% | 1017.7 hPa | 0 mm | - | 679 W/m² | - |
| 1777728672 | 27.78° C | 31% | 1017.8 hPa | 0 mm | - | 688 W/m² | - |
| 1777728074 | 27.22° C | 30% | 1018 hPa | 0 mm | - | 700 W/m² | - |
| 1777727473 | 26.67° C | 31% | 1018.2 hPa | 0 mm | - | 715 W/m² | - |
| 1777726873 | 26.67° C | 30% | 1018.3 hPa | 0 mm | - | 725 W/m² | - |
* Rain latest hour (hover to see other rain measurements)
** Current wind speed in m/s (hover to see current wind gust speed)